GW6861 Weather Reports


Display with metric or nautical units.
time (UTC)temp
F
wind
direction
speed
MPH
gust
MPH
rain 1hr
in
rain 24hr
in
rain mn
in
humidity
%
barometer
mb
20260507050503 48 0 0.0 0.0 0.00 0.29 0.00 90 1006.3
20260507050003 48 0 0.0 0.0 0.00 0.29 0.00 90 1006.5
20260507045713 48 69 0.0 1.0 0.00 0.29 0.00 89 1006.4
20260507045214 48 69 0.0 1.0 0.00 0.29 0.00 89 1006.3
20260507044505 48 0 0.0 0.0 0.00 0.29 0.00 90 1006.6
20260507044003 48 0 0.0 0.0 0.00 0.29 0.00 90 1006.5
20260507043503 48 0 0.0 0.0 0.00 0.29 0.00 90 1006.5
20260507043003 48 0 0.0 0.0 0.00 0.29 0.00 89 1006.5
20260507042503 48 351 0.0 2.0 0.00 0.29 0.00 88 1006.4
20260507042005 48 348 0.0 4.0 0.00 0.29 0.00 89 1006.4
20260507041503 48 321 1.0 9.0 0.00 0.29 0.00 89 1006.8
20260507041003 48 323 2.0 9.0 0.00 0.29 0.00 88 1007.0
20260507040712 48 323 2.0 9.0 0.00 0.29 0.00 89 1006.7
20260507040003 48 302 0.0 7.0 0.00 0.29 0.00 90 1006.8
20260507035714 48 260 0.0 3.0 0.00 0.29 0.29 90 1006.7
20260507035213 49 326 0.0 4.0 0.01 0.29 0.29 90 1006.6
20260507034503 49 349 0.0 4.0 0.03 0.29 0.29 90 1006.6
20260507034003 49 183 0.0 4.0 0.04 0.29 0.29 91 1006.4
20260507033505 49 181 0.0 4.0 0.04 0.29 0.29 91 1006.4
20260507033004 50 354 0.0 4.0 0.04 0.29 0.29 91 1006.3
20260507032503 50 354 0.0 4.0 0.04 0.29 0.29 92 1006.3
20260507032003 50 0 0.0 0.0 0.05 0.29 0.29 92 1006.3
20260507031503 50 50 0.0 2.0 0.05 0.29 0.29 92 1006.3
20260507031005 50 7 0.0 2.0 0.05 0.29 0.29 92 1006.2
20260507030503 51 350 0.0 2.0 0.05 0.29 0.29 91 1006.3
20260507030003 51 220 0.0 4.0 0.05 0.29 0.29 91 1006.4
20260507025503 51 265 0.0 5.0 0.05 0.29 0.29 91 1006.4
20260507025215 51 285 1.0 6.0 0.04 0.28 0.28 90 1006.5
20260507024503 52 317 1.0 9.0 0.02 0.26 0.26 90 1006.5
20260507024003 52 344 2.0 12.0 0.01 0.25 0.25 89 1006.4
20260507023503 52 343 3.0 12.0 0.02 0.25 0.25 89 1006.3
20260507023005 52 323 2.0 7.0 0.03 0.25 0.25 90 1006.2
20260507022503 53 357 1.0 6.0 0.03 0.25 0.25 90 1006.1
20260507022003 53 324 0.0 5.0 0.03 0.24 0.24 91 1005.9
20260507021714 53 323 0.0 5.0 0.04 0.24 0.24 91 1005.9
20260507021005 54 288 0.0 5.0 0.05 0.24 0.24 91 1005.8
20260507020503 54 253 0.0 5.0 0.06 0.24 0.24 91 1005.6
20260507020003 54 331 0.0 7.0 0.07 0.24 0.24 91 1005.5
20260507015503 54 336 0.0 7.0 0.09 0.24 0.24 91 1005.4
20260507015005 54 11 0.0 2.0 0.09 0.24 0.24 92 1005.4
20260507014714 54 114 0.0 0.0 0.09 0.24 0.24 92 1005.4
20260507014212 55 0 0.0 0.0 0.09 0.24 0.24 92 1005.3
20260507013503 55 359 0.0 3.0 0.08 0.23 0.23 91 1005.1
20260507013003 55 359 0.0 3.0 0.07 0.22 0.22 91 1005.1
20260507012505 56 208 0.0 4.0 0.07 0.22 0.22 92 1005.1
20260507012003 56 252 0.0 4.0 0.06 0.21 0.21 91 1005.1
20260507011503 56 326 1.0 5.0 0.05 0.20 0.20 90 1005.1
20260507010505 58 350 1.0 6.0 0.03 0.18 0.18 90 1004.8
20260507010003 58 97 0.0 2.0 0.02 0.17 0.17 90 1004.7
20260507005713 59 0 0.0 0.0 0.01 0.16 0.16 91 1004.7
20260507005214 59 0 0.0 0.0 0.00 0.15 0.15 90 1004.4
20260507004505 59 0 0.0 0.0 0.00 0.15 0.15 90 1004.2
20260507004003 59 0 0.0 0.0 0.00 0.15 0.15 90 1004.1
20260507003508 59 0 0.0 0.0 0.00 0.15 0.15 90 1004.1
20260507003005 59 0 0.0 0.0 0.00 0.15 0.15 89 1004.0
20260507002713 59 0 0.0 0.0 0.00 0.15 0.15 89 1003.9
20260507002003 59 0 0.0 0.0 0.00 0.15 0.15 89 1004.0
20260507001503 60 0 0.0 0.0 0.00 0.15 0.15 88 1003.9
20260507001003 59 0 0.0 0.0 0.00 0.15 0.15 88 1004.0
20260507000713 59 211 0.0 1.0 0.00 0.15 0.15 89 1003.9
20260507000005 59 207 0.0 3.0 0.00 0.15 0.15 88 1003.8
20260506235503 59 207 0.0 3.0 0.00 0.15 0.15 89 1003.8
20260506235003 59 0 0.0 0.0 0.00 0.15 0.15 89 1003.7
20260506234503 59 0 0.0 0.0 0.00 0.15 0.15 89 1003.6
20260506234003 59 0 0.0 0.0 0.00 0.15 0.15 89 1003.6
20260506233505 59 0 0.0 0.0 0.00 0.15 0.15 89 1003.6
20260506233214 59 225 0.0 2.0 0.00 0.15 0.15 89 1003.5
20260506232713 60 206 0.0 2.0 0.00 0.15 0.15 88 1003.6
20260506232214 60 168 0.0 1.0 0.00 0.15 0.15 88 1003.6
20260506231504 60 210 1.0 9.0 0.00 0.15 0.15 88 1003.7
20260506231003 60 215 1.0 9.0 0.00 0.15 0.15 87 1003.7
20260506230503 60 225 0.0 4.0 0.00 0.15 0.15 88 1003.7
20260506230003 60 202 1.0 6.0 0.00 0.15 0.15 88 1003.7
20260506225505 60 199 1.0 6.0 0.00 0.15 0.15 87 1003.7
20260506225003 60 206 0.0 6.0 0.00 0.15 0.15 87 1003.7
20260506224503 60 209 0.0 6.0 0.00 0.15 0.15 87 1003.7
20260506224003 60 182 1.0 8.0 0.00 0.15 0.15 87 1003.7
20260506223503 60 186 1.0 8.0 0.00 0.15 0.15 87 1003.7
20260506223005 60 207 1.0 5.0 0.00 0.15 0.15 87 1003.7
20260506222712 60 201 1.0 7.0 0.00 0.15 0.15 87 1003.7
20260506222003 60 190 1.0 7.0 0.00 0.15 0.15 87 1003.9
20260506221504 61 190 1.0 6.0 0.00 0.15 0.15 87 1003.9
20260506221003 61 201 1.0 6.0 0.00 0.15 0.15 86 1003.8
20260506220505 61 210 1.0 6.0 0.00 0.15 0.15 86 1003.9
20260506220003 61 186 1.0 6.0 0.00 0.15 0.15 86 1003.9
20260506215503 61 180 1.0 5.0 0.00 0.15 0.15 86 1004.0
20260506215003 61 180 0.0 5.0 0.00 0.15 0.15 86 1003.9
20260506214505 62 202 1.0 8.0 0.00 0.15 0.15 86 1003.9
20260506214003 62 213 1.0 8.0 0.00 0.15 0.15 86 1003.9
20260506213503 62 212 0.0 7.0 0.00 0.15 0.15 87 1003.9
20260506213003 62 214 1.0 8.0 0.00 0.15 0.15 86 1003.9
20260506212505 62 204 1.0 8.0 0.00 0.15 0.15 86 1003.9
20260506212003 62 210 1.0 11.0 0.00 0.15 0.15 88 1004.0
20260506211503 62 222 0.0 11.0 0.00 0.15 0.15 88 1004.0
20260506211003 62 203 0.0 4.0 0.00 0.15 0.15 89 1004.1
20260506210505 62 157 0.0 3.0 0.00 0.15 0.15 89 1004.1
20260506210003 62 156 1.0 9.0 0.01 0.15 0.15 89 1004.1
20260506205503 62 189 1.0 9.0 0.02 0.15 0.15 89 1004.1
20260506205003 62 201 2.0 10.0 0.02 0.15 0.15 89 1004.2
20260506204503 62 203 3.0 13.0 0.03 0.15 0.15 89 1004.2
20260506204215 62 207 1.0 13.0 0.03 0.15 0.15 89 1004.2
20260506203503 62 270 0.0 2.0 0.04 0.15 0.15 91 1004.2
20260506203003 62 221 0.0 3.0 0.05 0.15 0.15 90 1004.2
20260506202714 62 213 0.0 3.0 0.05 0.15 0.15 90 1004.2
20260506202003 62 200 0.0 7.0 0.06 0.15 0.15 91 1004.3
20260506201715 62 197 1.0 10.0 0.06 0.15 0.15 90 1004.3
20260506201003 61 190 1.0 11.0 0.06 0.15 0.15 90 1004.2
20260506200503 62 196 0.0 7.0 0.06 0.15 0.15 91 1004.3
20260506200003 61 192 0.0 4.0 0.06 0.14 0.14 90 1004.3
20260506195505 62 231 0.0 2.0 0.05 0.13 0.13 91 1004.5
20260506195005 62 186 0.0 6.0 0.05 0.13 0.13 91 1004.5
20260506194713 62 204 0.0 8.0 0.05 0.13 0.13 91 1004.6
20260506194212 61 237 0.0 8.0 0.04 0.12 0.12 91 1004.7
20260506193505 61 0 0.0 0.0 0.04 0.11 0.11 91 1004.8
20260506193003 61 0 0.0 0.0 0.03 0.10 0.10 90 1004.7
20260506192713 62 0 0.0 0.0 0.03 0.10 0.10 90 1004.8
20260506192005 62 233 0.0 2.0 0.03 0.09 0.09 91 1004.9
20260506191713 62 233 0.0 2.0 0.03 0.09 0.09 91 1004.9
20260506191214 61 0 0.0 0.0 0.03 0.09 0.09 90 1004.9
20260506190505 61 0 0.0 0.0 0.04 0.09 0.09 90 1004.8
20260506190003 61 0 0.0 0.0 0.03 0.08 0.08 89 1004.7
20260506185503 61 0 0.0 0.0 0.03 0.08 0.08 89 1004.7
20260506185005 61 81 0.0 2.0 0.04 0.08 0.08 90 1004.9
20260506184503 61 81 0.0 2.0 0.04 0.08 0.08 90 1005.2
20260506184214 61 200 0.0 2.0 0.05 0.08 0.08 90 1005.4
20260506183505 61 216 1.0 5.0 0.04 0.07 0.07 89 1005.5
20260506183003 61 212 1.0 5.0 0.05 0.07 0.07 89 1005.6
20260506182715 61 208 0.0 5.0 0.05 0.07 0.07 90 1005.7
20260506182005 61 206 0.0 4.0 0.05 0.06 0.06 89 1006.0
20260506181503 61 242 0.0 3.0 0.05 0.06 0.06 89 1006.0
20260506181003 61 241 0.0 3.0 0.06 0.06 0.06 89 1005.9
20260506180505 61 204 0.0 7.0 0.05 0.05 0.05 89 1005.9
20260506180004 61 213 1.0 7.0 0.05 0.05 0.05 88 1006.1
20260506175503 61 219 0.0 4.0 0.05 0.05 0.05 88 1006.1
20260506175005 61 201 0.0 3.0 0.04 0.04 0.04 88 1006.2
20260506174503 61 213 0.0 3.0 0.04 0.04 0.04 87 1006.3
20260506174003 61 213 0.0 3.0 0.03 0.03 0.03 86 1006.4
20260506173504 62 210 0.0 4.0 0.03 0.03 0.03 84 1006.4
20260506173003 62 220 0.0 4.0 0.02 0.02 0.02 85 1006.5
20260506172503 62 225 0.0 2.0 0.01 0.01 0.01 83 1006.4
20260506172003 63 213 0.0 9.0 0.01 0.01 0.01 80 1006.4
20260506171505 63 210 0.0 9.0 0.01 0.01 0.01 79 1006.4
20260506171003 64 205 1.0 7.0 0.00 0.00 0.00 78 1006.3
20260506170503 64 205 1.0 7.0 0.00 0.00 0.00 74 1006.3
20260506170005 65 204 0.0 7.0 0.00 0.00 0.00 74 1006.3
20260506165503 66 232 0.0 5.0 0.00 0.00 0.00 72 1006.2
20260506165003 67 205 1.0 8.0 0.00 0.00 0.00 69 1006.3
20260506164504 67 199 1.0 8.0 0.00 0.00 0.00 67 1006.1
20260506164213 68 197 1.0 6.0 0.00 0.00 0.00 66 1006.1
20260506163508 68 215 1.0 12.0 0.00 0.00 0.00 68 1006.2
20260506163003 68 224 2.0 12.0 0.00 0.00 0.00 65 1006.3
20260506162714 68 226 1.0 12.0 0.00 0.00 0.00 67 1006.3
20260506162003 68 216 1.0 6.0 0.00 0.00 0.00 66 1006.5
20260506161505 68 210 0.0 6.0 0.00 0.00 0.00 66 1006.5
20260506161003 68 207 0.0 5.0 0.00 0.00 0.00 66 1006.7
20260506160714 68 209 0.0 5.0 0.00 0.00 0.00 65 1006.6
20260506160003 67 201 1.0 7.0 0.00 0.00 0.00 69 1006.7
20260506155505 67 206 1.0 7.0 0.00 0.00 0.00 67 1006.8
20260506155003 67 240 0.0 4.0 0.00 0.00 0.00 69 1007.0
20260506154503 67 258 0.0 4.0 0.00 0.00 0.00 69 1007.1
20260506154003 67 205 0.0 3.0 0.00 0.00 0.00 68 1007.1
20260506153505 66 192 0.0 4.0 0.00 0.00 0.00 70 1007.1
20260506153213 66 209 1.0 8.0 0.00 0.00 0.00 68 1007.2
20260506152503 67 211 2.0 13.0 0.00 0.00 0.00 67 1007.3
20260506152003 67 219 2.0 13.0 0.00 0.00 0.00 66 1007.4
20260506151714 67 236 1.0 9.0 0.00 0.00 0.00 65 1007.5
20260506151005 67 199 0.0 4.0 0.00 0.00 0.00 67 1007.4
20260506150713 67 205 0.0 4.0 0.00 0.00 0.00 68 1007.4
20260506150003 67 208 0.0 4.0 0.00 0.00 0.00 67 1007.4
20260506145503 67 212 1.0 7.0 0.00 0.00 0.00 68 1007.3
20260506145005 67 217 1.0 7.0 0.00 0.00 0.00 68 1007.1
20260506144503 66 212 1.0 7.0 0.00 0.00 0.00 70 1007.2
20260506144003 66 202 0.0 5.0 0.00 0.00 0.00 68 1007.3
20260506143503 66 228 0.0 4.0 0.00 0.00 0.00 68 1007.5
20260506143003 66 183 0.0 4.0 0.00 0.00 0.00 68 1007.4
20260506142503 67 241 0.0 5.0 0.00 0.00 0.00 69 1007.3
20260506142214 66 238 1.0 5.0 0.00 0.00 0.00 68 1007.1
20260506141503 67 207 1.0 4.0 0.00 0.00 0.00 68 1007.1
20260506141008 67 194 1.0 7.0 0.00 0.00 0.00 68 1007.1
20260506140503 66 212 1.0 11.0 0.00 0.00 0.00 71 1007.1
20260506140214 66 212 1.0 11.0 0.00 0.00 0.00 70 1007.0
20260506135715 66 181 1.0 9.0 0.00 0.00 0.00 69 1007.0
20260506135214 66 183 1.0 9.0 0.00 0.00 0.00 70 1006.9
20260506134503 66 199 0.0 5.0 0.00 0.00 0.00 71 1006.9
20260506134004 65 194 0.0 5.0 0.00 0.00 0.00 71 1007.1
20260506133503 65 231 0.0 3.0 0.00 0.00 0.00 72 1007.1
20260506133003 64 231 0.0 4.0 0.00 0.00 0.00 73 1007.3
20260506132503 64 213 1.0 6.0 0.00 0.00 0.00 73 1007.3
20260506132005 64 202 1.0 10.0 0.00 0.00 0.00 74 1007.4
20260506131503 63 195 1.0 10.0 0.00 0.00 0.00 74 1007.5
20260506131003 63 196 2.0 16.0 0.00 0.00 0.00 74 1007.5
20260506130504 63 197 1.0 16.0 0.00 0.00 0.00 74 1007.6
20260506130004 63 205 1.0 8.0 0.00 0.00 0.00 74 1007.7
20260506125503 63 202 1.0 8.0 0.00 0.00 0.00 74 1007.6
20260506125216 63 202 1.0 8.0 0.00 0.00 0.00 74 1007.6
20260506124503 63 194 0.0 5.0 0.00 0.00 0.00 74 1007.6
20260506124003 63 205 0.0 5.0 0.00 0.00 0.00 73 1007.6
20260506123505 63 233 0.0 4.0 0.00 0.00 0.00 73 1007.6
20260506123003 63 228 1.0 8.0 0.00 0.00 0.00 73 1007.4
20260506122503 63 223 1.0 8.0 0.00 0.00 0.00 73 1007.6
20260506122006 63 161 0.0 4.0 0.00 0.00 0.00 74 1007.4
20260506121503 63 143 0.0 4.0 0.00 0.00 0.00 74 1007.5
20260506121003 62 160 0.0 3.0 0.00 0.00 0.00 75 1007.6
20260506120505 62 150 0.0 3.0 0.00 0.00 0.00 75 1007.6
20260506120003 62 230 0.0 1.0 0.00 0.00 0.00 75 1007.7
20260506115503 62 237 0.0 3.0 0.00 0.00 0.00 76 1007.7
20260506115004 62 239 0.0 3.0 0.00 0.00 0.00 76 1007.9
20260506114503 61 37 0.0 0.0 0.00 0.00 0.00 77 1007.8
20260506114003 60 37 0.0 0.0 0.00 0.00 0.00 78 1007.7
20260506113505 60 0 0.0 0.0 0.00 0.00 0.00 79 1007.8
20260506113003 59 0 0.0 0.0 0.00 0.00 0.00 81 1007.9
20260506112503 59 242 0.0 2.0 0.00 0.00 0.00 79 1008.0
20260506112005 60 242 0.0 2.0 0.00 0.00 0.00 78 1008.0
20260506111503 59 0 0.0 0.0 0.00 0.00 0.00 78 1007.9
20260506111003 59 0 0.0 0.0 0.00 0.00 0.00 80 1008.1
20260506110505 58 0 0.0 0.0 0.00 0.00 0.00 80 1007.9
20260506110005 58 0 0.0 0.0 0.00 0.00 0.00 79 1007.8
20260506105503 58 0 0.0 0.0 0.00 0.00 0.00 79 1008.0
20260506105004 58 0 0.0 0.0 0.00 0.00 0.00 79 1007.9
20260506104503 58 0 0.0 0.0 0.00 0.00 0.00 79 1007.9
20260506104003 58 0 0.0 0.0 0.00 0.00 0.00 80 1007.9
20260506103506 58 0 0.0 0.0 0.00 0.00 0.00 79 1008.1
20260506103003 58 0 0.0 0.0 0.00 0.00 0.00 79 1008.0
20260506102503 58 0 0.0 0.0 0.00 0.00 0.00 79 1008.0
20260506102005 57 0 0.0 0.0 0.00 0.00 0.00 79 1008.2
20260506101503 58 0 0.0 0.0 0.00 0.00 0.00 79 1008.1
20260506101213 58 0 0.0 0.0 0.00 0.00 0.00 79 1007.9
20260506100505 58 190 0.0 2.0 0.00 0.00 0.00 78 1007.9
20260506100004 57 0 0.0 0.0 0.00 0.00 0.00 80 1008.0
20260506095714 57 0 0.0 0.0 0.00 0.00 0.00 80 1007.9
20260506095005 56 0 0.0 0.0 0.00 0.00 0.00 80 1007.9
20260506094503 56 0 0.0 0.0 0.00 0.00 0.00 80 1007.8
20260506094003 57 0 0.0 0.0 0.00 0.00 0.00 79 1007.9
20260506093504 57 0 0.0 0.0 0.00 0.00 0.00 79 1007.9
20260506093212 57 0 0.0 0.0 0.00 0.00 0.00 79 1008.0
20260506092503 57 0 0.0 0.0 0.00 0.00 0.00 78 1007.9
20260506092214 57 0 0.0 0.0 0.00 0.00 0.00 78 1007.8
20260506091503 57 0 0.0 0.0 0.00 0.00 0.00 78 1008.0
20260506091003 57 0 0.0 0.0 0.00 0.00 0.00 78 1007.9
20260506090505 57 0 0.0 0.0 0.00 0.00 0.00 79 1008.0
20260506090003 57 0 0.0 0.0 0.00 0.00 0.00 77 1008.0
20260506085503 57 0 0.0 0.0 0.00 0.00 0.00 77 1008.0
20260506085006 58 0 0.0 0.0 0.00 0.00 0.00 76 1008.0
20260506084503 58 0 0.0 0.0 0.00 0.00 0.00 76 1008.0
20260506084003 58 0 0.0 0.0 0.00 0.00 0.00 76 1007.9
20260506083505 58 0 0.0 0.0 0.00 0.00 0.00 76 1008.0
20260506083003 58 0 0.0 0.0 0.00 0.00 0.00 76 1008.0
20260506082503 58 0 0.0 0.0 0.00 0.00 0.00 75 1008.0
20260506082004 58 0 0.0 0.0 0.00 0.00 0.00 74 1008.0
20260506081503 59 0 0.0 0.0 0.00 0.00 0.00 73 1008.1
20260506081003 60 0 0.0 0.0 0.00 0.00 0.00 71 1008.0
20260506080505 60 0 0.0 0.0 0.00 0.00 0.00 72 1008.1
20260506073505 61 0 0.0 0.0 0.00 0.00 0.00 70 1008.0
20260506073003 61 332 0.0 2.0 0.00 0.00 0.00 69 1008.0
20260506072503 62 332 0.0 2.0 0.00 0.00 0.00 69 1008.0
20260506072005 62 0 0.0 0.0 0.00 0.00 0.00 68 1008.0
20260506071503 61 208 0.0 1.0 0.00 0.00 0.00 69 1008.0
20260506071003 62 208 0.0 1.0 0.00 0.00 0.00 68 1008.0
20260506070715 62 208 0.0 1.0 0.00 0.00 0.00 68 1008.0
20260506062503 63 178 0.0 4.0 0.00 0.00 0.00 66 1007.7
20260506062003 63 216 0.0 4.0 0.00 0.00 0.00 65 1007.7
20260506061503 63 238 0.0 4.0 0.00 0.00 0.00 65 1007.5
20260506061215 63 181 0.0 4.0 0.00 0.00 0.00 65 1007.6
20260506060503 63 192 0.0 4.0 0.00 0.00 0.00 65 1007.6
20260506060213 62 0 0.0 0.0 0.00 0.00 0.00 64 1007.4
20260506051003 64 212 1.0 11.0 0.00 0.00 0.00 62 1007.6